Weather in Maanshan

China     30°11′20″N   114°17′19″E
temp.,
°C
wind,
m/s
gust,
m/s
humid.,
%
clouds,
%
prec.,
mm/h
press.,
hPa
HPBL,
m
8 march, mon
mon823:00+8ne118896 0.0 102722
02:00+8ene128995 0.0 102663
05:00+8e2289100 0.0 102577
08:00+8ese468495 0.0 1025343
11:00+9se2386100 0.8 1026369
14:00+9ese2386100 1.1 1024425
17:00+9ene2287100 0.1 1023314
20:00+9ene1292100 0.1 102478
9 march, tue
tue923:00+9ne1191100 0.0 102631
02:00+8n129392 0.0 102533
05:00+7nne229343 0.0 102431
08:00+9nne128854 0.0 1026129
11:00+13nne337258 0.0 1026648
14:00+16ne336139 0.0 10241052
17:00+16ese226473 0.0 1023797
20:00+13se237872 0.0 102546
10 march, wed
wed1023:00+13ene2279100 0.0 102525
02:00+13e238398 0.0 102471
05:00+12ene358299 0.0 1023169
08:00+12e4784100 0.0 1024354
11:00+12e3684100 0.2 1024493
14:00+12e4788100 0.9 1022503
17:00+12e3591100 0.9 1021389
20:00+11ene2296100 2.3 1023137
11 march, thu
thu1123:00+11ene1396100 0.2 1024158
02:00+12ne1296100 0.2 102294
05:00+12nne229399 0.0 102286
08:00+12nne249299 0.0 1024165
11:00+13ne1285100 0.0 1024348
14:00+14n2282100 0.0 1021342
17:00+15n1277100 0.0 1021395
20:00+13s1190100 0.7 102229
12 march, fri
fri1223:00+13sse2291100 0.1 102357
02:00+13nne119296 0.1 102223
05:00+12ne119333 0.0 102122
08:00+13ne129137 0.0 102399
11:00+17e2280100 0.0 1023536
14:00+18e2373100 0.1 1021696
17:00+19e3471100 0.0 1020663
20:00+18e2380100 0.0 102163